Weather History for Boscombe Down, United Kingdom

Change the Weather History Date:

Saturday, November 17, 2012

  Actual Average Record
Temperature  
Mean Temperature 44 °F -  
Max Temperature 52 °F 45 °F 59 °F (1997)
Min Temperature 37 °F 36 °F 28 °F (2005)
Degree Days  
Heating Degree Days 20    
Moisture  
Dew Point 45 °F    
Average Humidity 91    
Maximum Humidity 100    
Minimum Humidity 69    
Precipitation  
Precipitation 0.01 in - - ()
Sea Level Pressure  
Sea Level Pressure 29.76 in    
Wind  
Wind Speed 8 mph ()    
Max Wind Speed 15 mph    
Max Gust Speed -    
Visibility 6.0 miles    
Events Rain    
Averages and records for this station are not official NWS values.
T = Trace of Precipitation, MM = Missing Value Source: Averaged Metar Reports

Daily Weather History Graph

Daily Weather History Graph

Search for Another Location

Airport:

Trip Planner

Search our weather history database for the weather conditions in past years. The results will help you decide how hot, cold, wet, or windy it might be!

Date:

Astronomy

Nov. 17, 2012 Rise Set
Actual Time 7:27 AM GMT 4:15 PM GMT
Civil Twilight 6:50 AM GMT 4:52 PM GMT
Nautical Twilight 6:10 AM GMT 5:33 PM GMT
Astronomical Twilight 5:30 AM GMT 6:12 PM GMT
Moon 11:02 AM GMT (11/17) 8:08 PM GMT (11/17)
Length of Visible Light 10h 02m
Length of Day
8h 48m
Waxing Crescent, 18% of the Moon is Illuminated
Nov 17
Waxing Crescent
Nov 20
First Quarter
Nov 28
Full
Dec 6
Last Quarter
Dec 13
New

Hourly Weather History & Observations

Time (GMT) Temp. Windchill Dew Point Humidity Pressure Visibility Wind Dir Wind Speed Gust Speed Precip Events Conditions
12:50 AM 51.8 °F - 51.8 °F 100% 29.71 in 0.7 mi SSE 8.1 mph - N/A   Overcast
1:50 AM 51.8 °F - 51.8 °F 100% 29.68 in 0.8 mi South 8.1 mph - N/A   Scattered Clouds
2:50 AM 53 °F - 53 °F 100% 29.69 in 3 mi SSW 15.0 mph - -   Mist
2:50 AM 53.6 °F - 53.6 °F 100% 29.68 in - SSW 15.0 mph - N/A   Mostly Cloudy
3:50 AM 51.8 °F - 51.8 °F 100% 29.68 in 3.1 mi SSW 13.8 mph - N/A   Scattered Clouds
4:50 AM 51.8 °F - 51.8 °F 100% 29.65 in 4.3 mi SSW 10.4 mph - N/A   Mostly Cloudy
5:50 AM 50 °F - 48 °F 89% 29.70 in 28 mi West 11.5 mph - - Rain Rain
5:50 AM 50.0 °F - 48.2 °F 94% 29.68 in 6.2 mi West 11.5 mph - N/A   Mostly Cloudy
6:50 AM 48.2 °F - 46.4 °F 93% 29.68 in 6.2 mi West 11.5 mph - N/A   Mostly Cloudy
7:50 AM 48.2 °F - 46.4 °F 93% 29.71 in 6.2 mi WNW 11.5 mph - N/A   Mostly Cloudy
8:50 AM 48 °F - 47 °F 94% 29.75 in 12 mi NW 5.8 mph - -   Mostly Cloudy
8:50 AM 48.2 °F - 46.4 °F 93% 29.71 in 6.2 mi NW 5.8 mph - N/A   Mostly Cloudy
9:50 AM 50.0 °F - 48.2 °F 94% 29.74 in 6.2 mi WNW 8.1 mph - N/A   Mostly Cloudy
10:50 AM 48.2 °F - 46.4 °F 93% 29.77 in 6.2 mi NW 8.1 mph - N/A   Mostly Cloudy
11:50 AM 52 °F - 45 °F 69% 29.77 in 25 mi NW 8.1 mph - -   Partly Cloudy
11:50 AM 51.8 °F - 44.6 °F 76% 29.74 in 6.2 mi NW 8.1 mph - N/A   Scattered Clouds
12:50 PM 51.8 °F - 44.6 °F 76% 29.77 in 6.2 mi WNW 6.9 mph - N/A   Mostly Cloudy
1:50 PM 50.0 °F - 44.6 °F 82% 29.77 in 6.2 mi NW 8.1 mph - N/A   Mostly Cloudy
2:50 PM 49 °F - 45 °F 80% 29.78 in 25 mi NW 8.1 mph - -   Mostly Cloudy
2:50 PM 50.0 °F - 44.6 °F 82% 29.77 in 6.2 mi NW 8.1 mph - N/A   Mostly Cloudy
3:50 PM 48.2 °F - 44.6 °F 87% 29.77 in 6.2 mi NW 6.9 mph - N/A   Mostly Cloudy
4:50 PM 46.4 °F 42.9 °F 42.8 °F 87% 29.80 in 6.2 mi NW 6.9 mph - N/A   Scattered Clouds
5:50 PM 45 °F - 41 °F 81% 29.83 in 31 mi WNW 4.6 mph - -   Scattered Clouds
5:50 PM 44.6 °F 42.2 °F 41.0 °F 87% 29.80 in 6.2 mi WNW 4.6 mph - N/A   Mostly Cloudy
6:50 PM 44.6 °F - 42.8 °F 93% 29.83 in 6.2 mi West 2.3 mph - N/A   Mostly Cloudy
7:50 PM 42.8 °F 38.6 °F 41.0 °F 93% 29.83 in 6.2 mi WNW 6.9 mph - N/A   Mostly Cloudy
8:50 PM 41 °F - 40 °F 97% 29.88 in 15 mi NW 4.6 mph - -   Overcast
8:50 PM 41.0 °F 38.0 °F 41.0 °F 100% 29.86 in 6.2 mi NW 4.6 mph - N/A   Overcast
9:50 PM 39.2 °F 35.9 °F 39.2 °F 100% 29.86 in 6.2 mi WNW 4.6 mph - N/A   Overcast
10:50 PM 37.4 °F 34.9 °F 37.4 °F 100% 29.89 in 6.2 mi West 3.5 mph - N/A   Partly Cloudy
11:50 PM 37.4 °F 34.9 °F 35.6 °F 93% 29.89 in 6.2 mi WNW 3.5 mph - N/A   Unknown